Regional Weather Roundup
Issued by NWS

Home | Current Version | Previous Version | Text Only | Print | Product List | Glossary On
Versions: 1 2 3 4 5 6 7 8 9 10 11 12 13 14 15 16 17 18 19 20 21 22 23 24 25 26 27 28 29 30 31 32 33 34 35 36 37 38 39 40 41 42 43 44 45 46 47 48 49 50
000
ASUS43 KDMX 220907
RWRIA

WEATHER ROUNDUP FOR IOWA
NATIONAL WEATHER SERVICE DES MOINES IA
400 AM CDT FRI MAY 22 2015

NOTE: "FAIR" INDICATES FEW OR NO CLOUDS BELOW 12,000 FEET WITH NO
SIGNIFICANT WEATHER AND/OR OBSTRUCTIONS TO VISIBILITY.

* - THESE STATIONS ARE NOT NWS STATIONS...THUS NOT UNDER NWS
QUALITY CONTROL.  THEY ALSO DO NOT REPORT WEATHER SUCH
AS PRECIPITATION OR FOG.

IAZ001>003-012>014-020>022-031>034-043>046-221000-
   NORTHWEST IOWA

CITY           SKY/WX    TMP DP  RH WIND       PRES   REMARKS
CARROLL *      CLEAR     52  41  66 W13       30.17S
CHEROKEE *     CLEAR     43  41  93 CALM      30.18S
DENISON *      CLEAR     50  41  71 CALM      30.17F
LE MARS *      CLEAR     46  43  87 S5        30.19S
ORANGE CITY *  CLEAR     48  39  71 CALM      30.18S
SHELDON *      CLEAR     43  37  81 CALM      30.17R
SIOUX CITY     CLEAR     48  37  65 CALM      30.19S
SPENCER        CLEAR     43  37  79 NW6       30.18R
STORM LAKE *   CLEAR     50  41  71 W12       30.18S
$$

IAZ055>058-069>071-079>083-090>094-221000-
   SOUTHWEST IOWA

CITY           SKY/WX    TMP DP  RH WIND       PRES   REMARKS
ATLANTIC *     CLEAR     48  43  81 CALM      30.19F
AUDUBON *      CLEAR     50  43  76 CALM      30.19F
CLARINDA *     CLEAR     48  45  87 CALM      30.21F
COUNCIL BLFS * CLEAR     54  41  62 W5        30.19F
CRESTON *      CLEAR     50  43  76 W7        30.20S
HARLAN  *      CLEAR     48  46  93 CALM      30.22F
LAMONI         CLEAR     52  43  71 W8        30.19S
RED OAK *      PTCLDY    46  43  87 CALM      30.20S
SHENANDOAH *   CLEAR     46  45  93 CALM      30.20F
$$

IAZ047>049-059>061-072>074-084-221000-
   CENTRAL IOWA

CITY           SKY/WX    TMP DP  RH WIND       PRES   REMARKS
AMES           CLEAR     45  39  79 SW7       30.15R
ANKENY *       CLEAR     50  43  76 W8        30.16S
CHARITON *     CLEAR     54  43  66 W10       30.17S
DES MOINES     CLEAR     53  42  66 W6        30.17R
GRINNELL*      CLEAR     48  39  71 W5        30.16R
KNOXVILLE *    CLEAR     50  43  76 W9        30.15R
MARSHALLTOWN   CLEAR     45  36  70 NW6       30.14R
PELLA *        CLEAR     54  46  76 W8        30.16S
PERRY *          N/A     50  41  71 W8        30.17R
$$

IAZ004>006-015-016-023>025-035-036-221000-
   NORTH CENTRAL IOWA

CITY           SKY/WX    TMP DP  RH WIND       PRES   REMARKS
ALGONA *       CLEAR     46  37  71 SW7       30.17R
CLARION *      CLEAR     43  39  87 W5        30.16R
ESTHERVILLE    CLEAR     44  33  65 W8        30.16R
FORT DODGE *   CLEAR     45  37  76 CALM      30.17R
MASON CITY     CLEAR     43  35  73 W7        30.15R
FOREST CITY *  CLEAR     37  36  93 CALM      30.15R FOG
IOWA FALLS *     N/A     45  36  70 W7        30.16R
$$

IAZ007>011-017>019-026>030-037>042-050>054-066-221000-
   NORTHEAST IOWA

CITY           SKY/WX    TMP DP  RH WIND       PRES   REMARKS
CEDAR RAPIDS   CLEAR     44  38  79 W7        30.12R
CHARLES CITY * CLEAR     45  39  81 W5        30.14R
CLINTON *      CLEAR     45  37  76 CALM      30.12R
DECORAH *      CLEAR     48  37  66 CALM      30.11R
DUBUQUE        CLEAR     49  38  65 N8        30.10R
MONTICELLO *   CLEAR     43  43 100 CALM      30.11R
OELWEIN *      CLEAR     48  39  71 NW6       30.12S
WATERLOO       CLEAR     44  38  79 W3        30.12R
$$

IAZ064-065-067-068-078-221000-
   EAST CENTRAL IOWA

CITY           SKY/WX    TMP DP  RH WIND       PRES   REMARKS
DAVENPORT      CLEAR     46  39  76 W7        30.11R
IOWA CITY      CLEAR     50  37  61 CALM      30.14R
MT. PLEASANT * CLEAR     52  45  76 W6        30.14R
MUSCATINE *    CLEAR     52  41  66 CALM      30.12R
QUAD CITIES    CLEAR     47  41  80 W5        30.10R
$$

IAZ062-063-075>077-085>089-095>099-221000-
   SOUTHEAST IOWA

CITY           SKY/WX    TMP DP  RH WIND       PRES   REMARKS
BURLINGTON     CLEAR     53  46  77 W5        30.13R
FAIRFIELD *    CLEAR     50  43  76 W8        30.15R
FORT MADISON * CLEAR     54  46  76 W8        30.15R
KEOKUK *       CLEAR     54  46  76 W9        30.14R
OSKALOOSA *      N/A     50  43  76 W9        30.15R
CENTERVILLE *  CLEAR     50  50 100 W10       30.18S
OTTUMWA        CLEAR     52  43  71 W10       30.15R
WASHINGTON *   CLEAR     50  45  81 W9        30.15R
$$

ABBREVIATIONS USED IN REMARKS
   TC - TEMPERATURES IN CELSIUS
  WCI - WIND CHILL INDEX
   HX - HEAT INDEX
  VSB - VISIBILITY
$$



USA.gov is the U.S. government's official web portal to all federal, state and local government web resources and services.